Hourly Data Report for October 24, 2015

All times are specified in Local Standard Time (LST). Add 1 hour to adjust for Daylight Saving Time where and when it is observed.

CLYDE RIVER A
NUNAVUT

70°29'09.000" N
68°31'01.000" W
26.50 m
2400804
71090
YCY

Download Data

Hourly Data (October 2015)
Hourly Data Report for October 24, 2015
Temp Definition
°C
Dew Point Temp Definition
°C
Rel Hum Definition
%
Wind Dir Definition
10's deg

Wind Spd Definition
km/h
Visibility Definition
km
Stn Press Definition
kPa
Hmdx Definition


Wind Chill Definition


Weather Definition


TIME
00:00 Legend Double Dagger -3.9 -7.7 75 20 39 16.1 99.34   -13 LegendNANA
01:00 Legend Double Dagger -3.8 -7.3 77 19 37 16.1 99.26   -12 LegendNANA
02:00 Legend Double Dagger -3.9 -7.0 79 18 39 16.1 99.20   -13 LegendNANA
03:00 Legend Double Dagger -3.7 -7.1 77 17 32 16.1 99.17   -12 LegendNANA
04:00 Legend Double Dagger -3.6 -6.6 80 16 30 16.1 99.10   -11 LegendNANA
05:00 Legend Double Dagger -3.6 -7.1 77 15 26 16.1 99.04   -11 LegendNANA
06:00 Legend Double Dagger -3.8 -6.4 82 16 24 16.1 98.99   -11 LegendNANA
07:00 Legend Double Dagger -4.0 -6.6 82 16 32 16.1 98.90   -12 LegendNANA
08:00 Legend Double Dagger -3.8 -6.3 83 18 30 16.1 98.85   -11 LegendNANA
09:00 Legend Double Dagger -3.3 -7.0 76 19 22 16.1 98.83   -10 LegendNANA
10:00 Legend Double Dagger -3.7 -6.5 81 18 28 16.1 98.75   -11 LegendNANA
11:00 Legend Double Dagger -3.4 -6.0 82 19 22 16.1 98.71   -10 LegendNANA
12:00 Legend Double Dagger -5.1 -6.8 88 31 22 16.1 98.69   -12 Snow
13:00 Legend Double Dagger -5.5 -6.7 91 31 13 4.0 98.68   -11 Snow
14:00 Legend Double Dagger -5.7 -6.9 91 31 13 2.8 98.63   -11 Snow
15:00 Legend Double Dagger -5.9 -6.7 94 31 11 1.6 98.61   -11 Snow
16:00 Legend Double Dagger -6.2 -7.0 94 26 8 2.4 98.54   -10 Snow
17:00 Legend Double Dagger -6.0 -7.0 93 31 21 2.4 98.51   -13 Snow
18:00 Legend Double Dagger -6.0 -7.0 93 32 22 2.4 98.47   -13 Snow
19:00 Legend Double Dagger -6.1 -7.1 93 32 24 4.8 98.41   -14 Snow
20:00 Legend Double Dagger -6.2 -7.3 92 32 24 4.8 98.35   -14 Snow
21:00 Legend Double Dagger -6.4 -7.5 92 31 28 6.4 98.29   -15 Snow
22:00 Legend Double Dagger -6.3 -7.4 92 32 30 4.8 98.25   -15 Snow
23:00 Legend Double Dagger -6.5 -7.7 91 31 30 4.8 98.22   -15 Snow

Notes on Data Quality.

Legend

  • E = Estimated
  • M = Missing
  • NA = Not Available
  • ‡ = Partner data that is not subject to review by the National Climate Archives
Date modified: